,,,PA_Meas_PMT16A,,PR_Meas_QMR101_102,,RH_Meas_QMH101,,SR_Meas_QMS101,,TA_Meas_QMH101,,GenWind,,GenWind,
date,time,status,PA,status,PR,status,RH,status,SR,status,TA,status,DirAvg,status,SpdAvg,
2012-04-03, 00:00:05,VALID,1004.17,VALID,0,VALID,91.5097,VALID,0,VALID,24.0915,VALID,126,VALID,0.591406,
2012-04-03, 00:01:05,VALID,1004.17,VALID,0,VALID,91.5097,VALID,0,VALID,24.1324,VALID,126,VALID,0.722656,
2012-04-03, 00:02:04,VALID,1004.16,VALID,0,VALID,91.647,VALID,0,VALID,24.1128,VALID,126,VALID,0.719141,
2012-04-03, 00:03:04,VALID,1004.11,VALID,0,VALID,91.6851,VALID,0,VALID,24.1305,VALID,126,VALID,0.770312,
2012-04-03, 00:04:04,VALID,1004.11,VALID,0,VALID,91.5783,VALID,0,VALID,24.1305,VALID,126,VALID,0.889063,
2012-04-03, 00:05:04,VALID,1004.11,VALID,0,VALID,91.6623,VALID,0,VALID,24.1092,VALID,126,VALID,0.716406,
2012-04-03, 00:06:04,VALID,1004.1,VALID,0,VALID,91.5631,VALID,0,VALID,24.15,VALID,126,VALID,0.641797,
2012-04-03, 00:07:04,VALID,1004.06,VALID,0,VALID,91.4257,VALID,0,VALID,24.1305,VALID,126,VALID,0.434375,
2012-04-03, 00:08:04,VALID,1004.08,VALID,0,VALID,91.296,VALID,0,VALID,24.1305,VALID,126,VALID,0.370703,
2012-04-03, 00:09:04,VALID,1004.07,VALID,0,VALID,91.2197,VALID,0,VALID,24.111,VALID,126,VALID,0.355078,
2012-04-03, 00:10:04,VALID,1004.05,VALID,0,VALID,91.3266,VALID,0,VALID,24.0701,VALID,126,VALID,0.684375,
2012-04-03, 00:11:04,VALID,1004.03,VALID,0,VALID,91.7004,VALID,0,VALID,24.0915,VALID,126,VALID,0.707422,
2012-04-03, 00:12:04,VALID,1004.04,VALID,0,VALID,91.8454,VALID,0,VALID,24.0897,VALID,126,VALID,0.687891,
2012-04-03, 00:13:04,VALID,1004.03,VALID,0,VALID,91.8148,VALID,0,VALID,24.1287,VALID,131,VALID,0.978516,
2012-04-03, 00:14:04,VALID,1004,VALID,0,VALID,91.8148,VALID,0,VALID,24.15,VALID,137,VALID,0.975781,
2012-04-03, 00:15:04,VALID,1004,VALID,0,VALID,91.7233,VALID,0,VALID,24.1696,VALID,137,VALID,1.0332,
2012-04-03, 00:16:04,VALID,1004.01,VALID,0,VALID,91.647,VALID,0,VALID,24.1696,VALID,137,VALID,1.03633,
2012-04-03, 00:17:04,VALID,1003.99,VALID,0,VALID,91.5326,VALID,0,VALID,24.1696,VALID,137,VALID,0.860937,
2012-04-03, 00:18:04,VALID,1004,VALID,0,VALID,91.4715,VALID,0,VALID,24.1696,VALID,137,VALID,1.01836,
2012-04-03, 00:19:04,VALID,1003.94,VALID,0,VALID,91.4334,VALID,0,VALID,24.15,VALID,137,VALID,1.05234,
2012-04-03, 00:20:04,VALID,1003.95,VALID,0,VALID,91.4563,VALID,0,VALID,24.15,VALID,144,VALID,1.05508,
2012-04-03, 00:21:04,VALID,1003.92,VALID,0,VALID,91.38,VALID,0,VALID,24.15,VALID,150,VALID,1.30625,
2012-04-03, 00:22:04,VALID,1003.93,VALID,0,VALID,91.3647,VALID,0,VALID,24.1305,VALID,142,VALID,1.51797,
2012-04-03, 00:23:04,VALID,1003.93,VALID,0,VALID,91.4181,VALID,0,VALID,24.1287,VALID,141,VALID,1.28437,
2012-04-03, 00:24:04,VALID,1003.91,VALID,0,VALID,91.3876,VALID,0,VALID,24.15,VALID,157,VALID,1.06797,
2012-04-03, 00:25:04,VALID,1003.9,VALID,0,VALID,91.3494,VALID,0,VALID,24.15,VALID,158,VALID,1.09883,
2012-04-03, 00:26:04,VALID,1003.93,VALID,0,VALID,91.2579,VALID,0,VALID,24.15,VALID,158,VALID,0.909766,
2012-04-03, 00:27:04,VALID,1003.91,VALID,0,VALID,91.2426,VALID,0,VALID,24.1092,VALID,158,VALID,0.823047,
2012-04-03, 00:28:04,VALID,1003.92,VALID,0,VALID,91.2274,VALID,0,VALID,24.1305,VALID,158,VALID,0.714844,
2012-04-03, 00:29:04,VALID,1003.94,VALID,0,VALID,91.174,VALID,0,VALID,24.111,VALID,158,VALID,0.710156,
2012-04-03, 00:30:04,VALID,1003.94,VALID,0,VALID,91.1587,VALID,0,VALID,24.0915,VALID,158,VALID,0.532031,
2012-04-03, 00:31:04,VALID,1003.93,VALID,0,VALID,91.1816,VALID,0,VALID,24.0915,VALID,176,VALID,0.590234,
2012-04-03, 00:32:04,VALID,1003.92,VALID,0,VALID,91.1892,VALID,0,VALID,24.0915,VALID,176,VALID,0.686719,
2012-04-03, 00:33:04,VALID,1003.94,VALID,0,VALID,91.2197,VALID,0,VALID,24.0701,VALID,174,VALID,0.8375,
2012-04-03, 00:34:04,VALID,1003.93,VALID,0,VALID,91.235,VALID,0,VALID,24.072,VALID,174,VALID,0.753516,
2012-04-03, 00:35:04,VALID,1003.9,VALID,0,VALID,91.2503,VALID,0,VALID,24.1128,VALID,157,VALID,0.932813,
2012-04-03, 00:36:04,VALID,1003.87,VALID,0,VALID,91.2655,VALID,0,VALID,24.0915,VALID,155,VALID,0.985547,
2012-04-03, 00:37:04,VALID,1003.85,VALID,0,VALID,91.2274,VALID,0,VALID,24.111,VALID,167,VALID,1.06523,
2012-04-03, 00:38:04,VALID,1003.82,VALID,0,VALID,91.2579,VALID,0,VALID,24.15,VALID,140,VALID,0.969922,
2012-04-03, 00:39:04,VALID,1003.79,VALID,0,VALID,91.2274,VALID,0,VALID,24.15,VALID,134,VALID,0.949609,
2012-04-03, 00:40:04,VALID,1003.75,VALID,0,VALID,91.1434,VALID,0,VALID,24.1696,VALID,131,VALID,1.00352,
2012-04-03, 00:41:04,VALID,1003.75,VALID,0,VALID,91.0671,VALID,0,VALID,24.1696,VALID,131,VALID,0.874609,
2012-04-03, 00:42:04,VALID,1003.74,VALID,0,VALID,91.0595,VALID,0,VALID,24.1696,VALID,131,VALID,0.688281,
2012-04-03, 00:43:04,VALID,1003.72,VALID,0,VALID,91.0519,VALID,0,VALID,24.1696,VALID,129,VALID,0.872266,
2012-04-03, 00:44:04,VALID,1003.69,VALID,0,VALID,91.09,VALID,0,VALID,24.1482,VALID,131,VALID,0.614453,
2012-04-03, 00:45:04,VALID,1003.71,VALID,0,VALID,91.0595,VALID,0,VALID,24.1696,VALID,131,VALID,0.863281,
2012-04-03, 00:46:04,VALID,1003.68,VALID,0,VALID,91.0595,VALID,0,VALID,24.1891,VALID,131,VALID,0.647266,
2012-04-03, 00:47:04,VALID,1003.67,VALID,0,VALID,91.0366,VALID,0,VALID,24.1891,VALID,118,VALID,0.815625,
2012-04-03, 00:48:04,VALID,1003.7,VALID,0,VALID,91.0595,VALID,0,VALID,24.2086,VALID,120,VALID,0.6875,
2012-04-03, 00:49:04,VALID,1003.67,VALID,0,VALID,91.0214,VALID,0,VALID,24.2086,VALID,110,VALID,0.895312,
2012-04-03, 00:50:04,VALID,1003.68,VALID,0,VALID,90.9909,VALID,0,VALID,24.2067,VALID,100,VALID,0.999609,
2012-04-03, 00:51:04,VALID,1003.63,VALID,0,VALID,90.9603,VALID,0,VALID,24.2281,VALID,93,VALID,0.755078,
2012-04-03, 00:52:04,VALID,1003.61,VALID,0,VALID,90.9603,VALID,0,VALID,24.2281,VALID,93,VALID,0.776172,
2012-04-03, 00:53:04,VALID,1003.58,VALID,0,VALID,91.0061,VALID,0,VALID,24.2281,VALID,106,VALID,0.958594,
2012-04-03, 00:54:04,VALID,1003.57,VALID,0,VALID,90.9832,VALID,0,VALID,24.2281,VALID,119,VALID,0.871875,
2012-04-03, 00:55:04,VALID,1003.55,VALID,0,VALID,90.9527,VALID,0,VALID,24.2495,VALID,122,VALID,0.855078,
2012-04-03, 00:56:04,VALID,1003.57,VALID,0,VALID,90.9222,VALID,0,VALID,24.2476,VALID,122,VALID,0.669922,
2012-04-03, 00:57:04,VALID,1003.52,VALID,0,VALID,90.8993,VALID,0,VALID,24.2281,VALID,122,VALID,0.724609,
2012-04-03, 00:58:04,VALID,1003.48,VALID,0,VALID,90.9527,VALID,0,VALID,24.2281,VALID,138,VALID,0.712891,
2012-04-03, 00:59:04,VALID,1003.47,VALID,0,VALID,90.9298,VALID,0,VALID,24.2086,VALID,138,VALID,0.732422,
2012-04-03, 01:00:04,VALID,1003.47,VALID,0,VALID,90.9527,VALID,0,VALID,24.1891,VALID,138,VALID,0.650781,
2012-04-03, 01:01:04,VALID,1003.48,VALID,0,VALID,90.968,VALID,0,VALID,24.1891,VALID,144,VALID,0.301562,
2012-04-03, 01:02:04,VALID,1003.49,VALID,0,VALID,90.9603,VALID,0,VALID,24.1696,VALID,144,VALID,0.403125,
2012-04-03, 01:03:04,VALID,1003.46,VALID,0,VALID,90.9985,VALID,0,VALID,24.1696,VALID,184,VALID,0.669141,
2012-04-03, 01:04:04,VALID,1003.46,VALID,0,VALID,91.1358,VALID,0,VALID,24.1696,VALID,185,VALID,0.538672,
2012-04-03, 01:05:04,VALID,1003.45,VALID,0,VALID,91.1511,VALID,0,VALID,24.1696,VALID,185,VALID,0.635156,
2012-04-03, 01:06:04,VALID,1003.45,VALID,0,VALID,91.2197,VALID,0,VALID,24.1696,VALID,298,VALID,1.00937,
2012-04-03, 01:07:04,VALID,1003.46,VALID,0,VALID,91.2579,VALID,0,VALID,24.15,VALID,298,VALID,0.551172,
2012-04-03, 01:08:04,VALID,1003.43,VALID,0,VALID,91.296,VALID,0,VALID,24.1482,VALID,298,VALID,0.515234,
2012-04-03, 01:09:04,VALID,1003.43,VALID,0,VALID,91.3037,VALID,0,VALID,24.15,VALID,298,VALID,0.317187,
2012-04-03, 01:10:04,VALID,1003.45,VALID,0,VALID,91.3189,VALID,0,VALID,24.1305,VALID,298,VALID,0.219531,
2012-04-03, 01:11:04,VALID,1003.44,VALID,0,VALID,91.2426,VALID,0,VALID,24.111,VALID,298,VALID,0.259766,
2012-04-03, 01:12:04,VALID,1003.41,VALID,0,VALID,91.2197,VALID,0,VALID,24.0915,VALID,298,VALID,0,
2012-04-03, 01:13:04,VALID,1003.43,VALID,0,VALID,91.2121,VALID,0,VALID,24.072,VALID,298,VALID,0,
2012-04-03, 01:14:04,VALID,1003.38,VALID,0,VALID,91.296,VALID,0,VALID,24.0525,VALID,298,VALID,0,
2012-04-03, 01:15:04,VALID,1003.36,VALID,0,VALID,91.4715,VALID,0,VALID,24.0329,VALID,298,VALID,0.499609,
2012-04-03, 01:16:04,VALID,1003.38,VALID,0,VALID,91.7767,VALID,0,VALID,24.0525,VALID,288,VALID,0.830469,
2012-04-03, 01:17:04,VALID,1003.35,VALID,0,VALID,92.0743,VALID,0,VALID,24.0915,VALID,278,VALID,0.885938,
2012-04-03, 01:18:04,VALID,1003.34,VALID,0,VALID,92.1887,VALID,0,VALID,24.111,VALID,279,VALID,0.39375,
2012-04-03, 01:19:04,VALID,1003.32,VALID,0,VALID,92.1811,VALID,0,VALID,24.1305,VALID,279,VALID,0.209375,
2012-04-03, 01:20:04,VALID,1003.3,VALID,0,VALID,92.1429,VALID,0,VALID,24.15,VALID,279,VALID,0.227734,
2012-04-03, 01:21:04,VALID,1003.32,VALID,0,VALID,92.1048,VALID,0,VALID,24.1696,VALID,279,VALID,0.329297,
2012-04-03, 01:22:04,VALID,1003.35,VALID,0,VALID,92.0819,VALID,0,VALID,24.1891,VALID,279,VALID,0.252734,
2012-04-03, 01:23:04,VALID,1003.33,VALID,0,VALID,92.0743,VALID,0,VALID,24.2086,VALID,279,VALID,0.328516,
2012-04-03, 01:24:04,VALID,1003.32,VALID,0,VALID,92.0437,VALID,0,VALID,24.2281,VALID,279,VALID,0.240625,
2012-04-03, 01:25:04,VALID,1003.33,VALID,0,VALID,92.0056,VALID,0,VALID,24.2281,VALID,279,VALID,0.122656,
2012-04-03, 01:26:04,VALID,1003.3,VALID,0,VALID,91.9598,VALID,0,VALID,24.2067,VALID,279,VALID,0.412109,
2012-04-03, 01:27:04,VALID,1003.28,VALID,0,VALID,91.9217,VALID,0,VALID,24.2281,VALID,279,VALID,0.607422,
2012-04-03, 01:28:04,VALID,1003.28,VALID,0,VALID,91.998,VALID,0,VALID,24.1891,VALID,279,VALID,0.678516,
2012-04-03, 01:29:04,VALID,1003.26,VALID,0,VALID,92.0819,VALID,0,VALID,24.1891,VALID,307,VALID,0.74375,
2012-04-03, 01:30:04,VALID,1003.29,VALID,0,VALID,92.0361,VALID,0,VALID,24.15,VALID,15,VALID,0.916016,
2012-04-03, 01:31:04,VALID,1003.28,VALID,0,VALID,91.9369,VALID,0,VALID,24.1287,VALID,15,VALID,0.652344,
2012-04-03, 01:32:04,VALID,1003.29,VALID,0,VALID,91.8911,VALID,0,VALID,24.072,VALID,29,VALID,0.944531,
2012-04-03, 01:33:04,VALID,1003.31,VALID,0,VALID,92.2345,VALID,0,VALID,24.0525,VALID,29,VALID,0.927734,
2012-04-03, 01:34:04,VALID,1003.32,VALID,0,VALID,92.2879,VALID,0,VALID,24.0329,VALID,36,VALID,0.916016,
2012-04-03, 01:35:04,VALID,1003.28,VALID,0,VALID,92.2955,VALID,0,VALID,24.0134,VALID,51,VALID,1.11719,
2012-04-03, 01:36:04,VALID,1003.3,VALID,0,VALID,92.2421,VALID,0,VALID,24.0134,VALID,51,VALID,1.21406,
2012-04-03, 01:37:04,VALID,1003.29,VALID,0,VALID,92.2116,VALID,0,VALID,23.9744,VALID,51,VALID,1.13164,
2012-04-03, 01:38:04,VALID,1003.25,VALID,0,VALID,92.12,VALID,0,VALID,23.9744,VALID,51,VALID,1.02734,
2012-04-03, 01:39:04,VALID,1003.26,VALID,0,VALID,92.1506,VALID,0,VALID,23.9549,VALID,51,VALID,1.02695,
2012-04-03, 01:40:04,VALID,1003.24,VALID,0,VALID,92.1887,VALID,0,VALID,23.9549,VALID,57,VALID,1.14492,
2012-04-03, 01:41:04,VALID,1003.25,VALID,0,VALID,92.2574,VALID,0,VALID,23.914,VALID,57,VALID,1.01445,
2012-04-03, 01:42:04,VALID,1003.25,VALID,0,VALID,92.3031,VALID,0,VALID,23.9354,VALID,57,VALID,0.965234,
2012-04-03, 01:43:04,VALID,1003.25,VALID,0,VALID,92.3031,VALID,0,VALID,23.8945,VALID,57,VALID,0.818359,
2012-04-03, 01:44:04,VALID,1003.21,VALID,0,VALID,92.2955,VALID,0,VALID,23.8945,VALID,57,VALID,0.631641,
2012-04-03, 01:45:04,VALID,1003.21,VALID,0,VALID,92.2726,VALID,0,VALID,23.8768,VALID,57,VALID,0.379687,
2012-04-03, 01:46:04,VALID,1003.19,VALID,0,VALID,92.2345,VALID,0,VALID,23.8573,VALID,57,VALID,0.205078,
2012-04-03, 01:47:04,VALID,1003.17,VALID,0,VALID,92.2803,VALID,0,VALID,23.8165,VALID,57,VALID,0.165625,
2012-04-03, 01:48:04,VALID,1003.14,VALID,0,VALID,92.326,VALID,0,VALID,23.8183,VALID,57,VALID,0.0421875,
2012-04-03, 01:49:04,VALID,1003.12,VALID,0,VALID,92.3642,VALID,0,VALID,23.8183,VALID,57,VALID,0.241406,
2012-04-03, 01:50:04,VALID,1003.1,VALID,0,VALID,92.3566,VALID,0,VALID,23.7988,VALID,57,VALID,0.279297,
2012-04-03, 01:51:04,VALID,1003.09,VALID,0,VALID,92.3184,VALID,0,VALID,23.7579,VALID,57,VALID,0.610547,
2012-04-03, 01:52:04,VALID,1003.11,VALID,0,VALID,92.3566,VALID,0,VALID,23.7597,VALID,57,VALID,0.599609,
2012-04-03, 01:53:04,VALID,1003.13,VALID,0,VALID,92.4176,VALID,0,VALID,23.7402,VALID,57,VALID,0.539453,
2012-04-03, 01:54:04,VALID,1003.17,VALID,0,VALID,92.4939,VALID,0,VALID,23.7402,VALID,57,VALID,0.41875,
2012-04-03, 01:55:04,VALID,1003.17,VALID,0,VALID,92.4252,VALID,0,VALID,23.7207,VALID,56,VALID,0.0316406,
2012-04-03, 01:56:04,VALID,1003.19,VALID,0,VALID,92.3413,VALID,0,VALID,23.6799,VALID,57,VALID,0,
2012-04-03, 01:57:04,VALID,1003.17,VALID,0,VALID,92.3642,VALID,0,VALID,23.6604,VALID,57,VALID,0,
2012-04-03, 01:58:04,VALID,1003.15,VALID,0,VALID,92.4481,VALID,0,VALID,23.6817,VALID,57,VALID,0,
2012-04-03, 01:59:04,VALID,1003.13,VALID,0,VALID,92.5015,VALID,0,VALID,23.6622,VALID,57,VALID,0,
2012-04-03, 02:00:04,VALID,1003.13,VALID,0,VALID,92.5854,VALID,0,VALID,23.6409,VALID,57,VALID,0.0160156,
2012-04-03, 02:01:04,VALID,1003.1,VALID,0,VALID,92.6999,VALID,0,VALID,23.6817,VALID,56,VALID,0.296484,
2012-04-03, 02:02:04,VALID,1003.11,VALID,0,VALID,92.8067,VALID,0,VALID,23.6604,VALID,56,VALID,0.375781,
2012-04-03, 02:03:04,VALID,1003.15,VALID,0,VALID,92.883,VALID,0,VALID,23.7012,VALID,57,VALID,0.296875,
2012-04-03, 02:04:04,VALID,1003.13,VALID,0,VALID,92.8601,VALID,0,VALID,23.6817,VALID,56,VALID,0.409766,
2012-04-03, 02:05:04,VALID,1003.13,VALID,0,VALID,92.8525,VALID,0,VALID,23.7012,VALID,57,VALID,0.3375,
2012-04-03, 02:06:04,VALID,1003.1,VALID,0,VALID,92.822,VALID,0,VALID,23.6799,VALID,57,VALID,0,
2012-04-03, 02:07:04,VALID,1003.12,VALID,0,VALID,92.6236,VALID,0,VALID,23.6817,VALID,57,VALID,0,
2012-04-03, 02:08:04,VALID,1003.11,VALID,0,VALID,92.677,VALID,0,VALID,23.6622,VALID,57,VALID,0,
2012-04-03, 02:09:04,VALID,1003.14,VALID,0,VALID,92.8296,VALID,0,VALID,23.6409,VALID,56,VALID,0,
2012-04-03, 02:10:04,VALID,1003.14,VALID,0,VALID,92.9517,VALID,0,VALID,23.6604,VALID,56,VALID,0,
2012-04-03, 02:11:04,VALID,1003.13,VALID,0,VALID,92.8525,VALID,0,VALID,23.6427,VALID,56,VALID,0.519922,
2012-04-03, 02:12:04,VALID,1003.15,VALID,0,VALID,92.7151,VALID,0,VALID,23.6019,VALID,56,VALID,0.198828,
2012-04-03, 02:13:04,VALID,1003.13,VALID,0,VALID,92.6312,VALID,0,VALID,23.5841,VALID,56,VALID,0,
2012-04-03, 02:14:04,VALID,1003.1,VALID,0,VALID,92.6923,VALID,0,VALID,23.5841,VALID,56,VALID,0,
2012-04-03, 02:15:04,VALID,1003.09,VALID,0,VALID,92.6999,VALID,0,VALID,23.5451,VALID,56,VALID,0,
2012-04-03, 02:16:04,VALID,1003.11,VALID,0,VALID,92.6846,VALID,0,VALID,23.5043,VALID,56,VALID,0,
2012-04-03, 02:17:04,VALID,1003.09,VALID,0,VALID,92.7914,VALID,0,VALID,23.4848,VALID,56,VALID,0,
2012-04-03, 02:18:04,VALID,1003.1,VALID,0,VALID,92.7685,VALID,0,VALID,23.4866,VALID,56,VALID,0,
2012-04-03, 02:19:04,VALID,1003.11,VALID,0,VALID,92.9517,VALID,0,VALID,23.4848,VALID,56,VALID,0,
2012-04-03, 02:20:04,VALID,1003.07,VALID,0,VALID,93.1119,VALID,0,VALID,23.4848,VALID,56,VALID,0,
2012-04-03, 02:21:04,VALID,1003.03,VALID,0,VALID,93.1577,VALID,0,VALID,23.5061,VALID,56,VALID,0,
2012-04-03, 02:22:04,VALID,1003.03,VALID,0,VALID,93.2492,VALID,0,VALID,23.4848,VALID,56,VALID,0.157422,
2012-04-03, 02:23:04,VALID,1002.98,VALID,0,VALID,93.2034,VALID,0,VALID,23.4866,VALID,56,VALID,0.432422,
2012-04-03, 02:24:04,VALID,1002.96,VALID,0,VALID,93.2645,VALID,0,VALID,23.4866,VALID,56,VALID,0.420703,
2012-04-03, 02:25:04,VALID,1002.97,VALID,0,VALID,93.4323,VALID,0,VALID,23.4866,VALID,56,VALID,0.313672,
2012-04-03, 02:26:04,VALID,1002.97,VALID,0,VALID,93.5391,VALID,0,VALID,23.5061,VALID,56,VALID,0.338672,
2012-04-03, 02:27:04,VALID,1002.96,VALID,0,VALID,93.6231,VALID,0,VALID,23.5043,VALID,56,VALID,0.366016,
2012-04-03, 02:28:04,VALID,1002.99,VALID,0,VALID,93.6612,VALID,0.104696,VALID,23.5238,VALID,56,VALID,0.494531,
2012-04-03, 02:29:04,VALID,1002.98,VALID,0,VALID,93.6154,VALID,0,VALID,23.5238,VALID,57,VALID,0.614453,
2012-04-03, 02:30:04,VALID,1002.97,VALID,0,VALID,93.5849,VALID,0,VALID,23.5238,VALID,57,VALID,0.609375,
2012-04-03, 02:31:04,VALID,1002.98,VALID,0,VALID,93.5315,VALID,0,VALID,23.5451,VALID,57,VALID,0.585547,
2012-04-03, 02:32:04,VALID,1003.02,VALID,0,VALID,93.4934,VALID,0,VALID,23.5238,VALID,56,VALID,0.453125,
2012-04-03, 02:33:04,VALID,1003,VALID,0,VALID,93.4247,VALID,0,VALID,23.5238,VALID,56,VALID,0.403906,
2012-04-03, 02:34:04,VALID,1003.02,VALID,0,VALID,93.3789,VALID,0,VALID,23.5451,VALID,56,VALID,0.403516,
2012-04-03, 02:35:04,VALID,1003.03,VALID,0,VALID,93.3942,VALID,0,VALID,23.5451,VALID,56,VALID,0.382422,
2012-04-03, 02:36:04,VALID,1003.04,VALID,0,VALID,93.3331,VALID,0,VALID,23.5043,VALID,56,VALID,0.336719,
2012-04-03, 02:37:04,VALID,1003.03,VALID,0,VALID,93.2874,VALID,0,VALID,23.5061,VALID,56,VALID,0.457031,
2012-04-03, 02:38:04,VALID,1003.05,VALID,0,VALID,93.2645,VALID,0,VALID,23.5061,VALID,56,VALID,0.504297,
2012-04-03, 02:39:04,VALID,1003.01,VALID,0,VALID,93.2111,VALID,0,VALID,23.4671,VALID,56,VALID,0.536328,
2012-04-03, 02:40:04,VALID,1002.99,VALID,0,VALID,93.2645,VALID,0,VALID,23.4671,VALID,56,VALID,0.430859,
2012-04-03, 02:41:04,VALID,1003.01,VALID,0,VALID,93.3255,VALID,0,VALID,23.4263,VALID,56,VALID,0.467187,
2012-04-03, 02:42:04,VALID,1002.98,VALID,0,VALID,93.3866,VALID,0,VALID,23.4263,VALID,56,VALID,0.471094,
2012-04-03, 02:43:04,VALID,1003,VALID,0,VALID,93.4171,VALID,0.104696,VALID,23.4263,VALID,56,VALID,0.408594,
2012-04-03, 02:44:04,VALID,1002.98,VALID,0,VALID,93.4934,VALID,0,VALID,23.4067,VALID,56,VALID,0.436719,
2012-04-03, 02:45:04,VALID,1003.01,VALID,0,VALID,93.5315,VALID,0,VALID,23.4067,VALID,56,VALID,0.431641,
2012-04-03, 02:46:04,VALID,1003.03,VALID,0,VALID,93.5773,VALID,0,VALID,23.428,VALID,56,VALID,0.237891,
2012-04-03, 02:47:04,VALID,1003.01,VALID,0,VALID,93.6154,VALID,0,VALID,23.428,VALID,56,VALID,0.0328125,
2012-04-03, 02:48:04,VALID,1003.03,VALID,0,VALID,93.6231,VALID,0,VALID,23.428,VALID,56,VALID,0,
2012-04-03, 02:49:04,VALID,1003.03,VALID,0,VALID,93.6078,VALID,0,VALID,23.428,VALID,56,VALID,0,
2012-04-03, 02:50:04,VALID,1003.06,VALID,0,VALID,93.6078,VALID,0,VALID,23.428,VALID,56,VALID,0,
2012-04-03, 02:51:04,VALID,1003.1,VALID,0,VALID,93.6841,VALID,0,VALID,23.4263,VALID,56,VALID,0.0488281,
2012-04-03, 02:52:04,VALID,1003.07,VALID,0,VALID,93.7528,VALID,0,VALID,23.4671,VALID,56,VALID,0.191406,
2012-04-03, 02:53:04,VALID,1003.07,VALID,0,VALID,93.7833,VALID,0,VALID,23.4671,VALID,56,VALID,0,
2012-04-03, 02:54:04,VALID,1003.05,VALID,0,VALID,93.7985,VALID,0,VALID,23.4671,VALID,56,VALID,0,
2012-04-03, 02:55:04,VALID,1003,VALID,0,VALID,93.7146,VALID,0,VALID,23.4475,VALID,56,VALID,0.302734,
2012-04-03, 02:56:04,VALID,1003.02,VALID,0,VALID,93.768,VALID,0,VALID,23.4671,VALID,102,VALID,0.58125,
2012-04-03, 02:57:04,VALID,1003.04,VALID,0,VALID,93.852,VALID,0,VALID,23.4866,VALID,102,VALID,0.844531,
2012-04-03, 02:58:04,VALID,1003.05,VALID,0,VALID,93.8901,VALID,0,VALID,23.5256,VALID,102,VALID,0.682422,
2012-04-03, 02:59:04,VALID,1003.05,VALID,0,VALID,93.8748,VALID,0,VALID,23.5451,VALID,102,VALID,0.879297,
2012-04-03, 03:00:04,VALID,1003.06,VALID,0,VALID,93.7528,VALID,0,VALID,23.5451,VALID,102,VALID,0.844141,
2012-04-03, 03:01:04,VALID,1003.05,VALID,0,VALID,93.6231,VALID,0,VALID,23.5451,VALID,102,VALID,0.622656,
2012-04-03, 03:02:04,VALID,1003.05,VALID,0,VALID,93.5391,VALID,0,VALID,23.5043,VALID,102,VALID,0.615234,
2012-04-03, 03:03:04,VALID,1003.08,VALID,0,VALID,93.4781,VALID,0,VALID,23.4848,VALID,102,VALID,0.677734,
2012-04-03, 03:04:04,VALID,1003.07,VALID,0,VALID,93.4323,VALID,0,VALID,23.5061,VALID,102,VALID,0.569531,
2012-04-03, 03:05:04,VALID,1003.1,VALID,0,VALID,93.4247,VALID,0.104696,VALID,23.4653,VALID,102,VALID,0.665234,
2012-04-03, 03:06:04,VALID,1003.12,VALID,0,VALID,93.44,VALID,0,VALID,23.4866,VALID,102,VALID,0.331641,
2012-04-03, 03:07:04,VALID,1003.17,VALID,0,VALID,93.4705,VALID,0,VALID,23.4866,VALID,102,VALID,0.376172,
2012-04-03, 03:08:04,VALID,1003.14,VALID,0,VALID,93.4781,VALID,0,VALID,23.4671,VALID,102,VALID,0.298438,
2012-04-03, 03:09:04,VALID,1003.15,VALID,0,VALID,93.5239,VALID,0,VALID,23.4458,VALID,102,VALID,0.280859,
2012-04-03, 03:10:04,VALID,1003.19,VALID,0,VALID,93.6002,VALID,0,VALID,23.4458,VALID,102,VALID,0,
2012-04-03, 03:11:04,VALID,1003.2,VALID,0,VALID,93.6307,VALID,0,VALID,23.4866,VALID,102,VALID,0,
2012-04-03, 03:12:04,VALID,1003.21,VALID,0,VALID,93.6841,VALID,0,VALID,23.4671,VALID,102,VALID,0,
2012-04-03, 03:13:04,VALID,1003.21,VALID,0,VALID,93.6917,VALID,0,VALID,23.4671,VALID,102,VALID,0,
2012-04-03, 03:14:04,VALID,1003.19,VALID,0,VALID,93.7146,VALID,0,VALID,23.4671,VALID,102,VALID,0,
2012-04-03, 03:15:04,VALID,1003.21,VALID,0,VALID,93.7833,VALID,0,VALID,23.4671,VALID,102,VALID,0,
2012-04-03, 03:16:04,VALID,1003.2,VALID,0,VALID,93.8062,VALID,0,VALID,23.4653,VALID,102,VALID,0,
2012-04-03, 03:17:04,VALID,1003.19,VALID,0,VALID,93.8062,VALID,0,VALID,23.4866,VALID,102,VALID,0.00390625,
2012-04-03, 03:18:04,VALID,1003.18,VALID,0,VALID,93.8443,VALID,0,VALID,23.5061,VALID,102,VALID,0.752344,
2012-04-03, 03:19:04,VALID,1003.2,VALID,0,VALID,93.8825,VALID,0,VALID,23.4848,VALID,102,VALID,0.764063,
2012-04-03, 03:20:04,VALID,1003.17,VALID,0,VALID,93.8901,VALID,0,VALID,23.5238,VALID,102,VALID,0.567187,
2012-04-03, 03:21:04,VALID,1003.19,VALID,0,VALID,93.7985,VALID,0,VALID,23.5238,VALID,102,VALID,0.705469,
2012-04-03, 03:22:04,VALID,1003.14,VALID,0,VALID,93.7146,VALID,0,VALID,23.5256,VALID,102,VALID,0.620313,
2012-04-03, 03:23:04,VALID,1003.16,VALID,0,VALID,93.6841,VALID,0,VALID,23.5256,VALID,102,VALID,0.608203,
2012-04-03, 03:24:04,VALID,1003.15,VALID,0,VALID,93.6688,VALID,0,VALID,23.5061,VALID,102,VALID,0.787891,
2012-04-03, 03:25:04,VALID,1003.14,VALID,0,VALID,93.646,VALID,0,VALID,23.4848,VALID,102,VALID,0.591016,
2012-04-03, 03:26:04,VALID,1003.13,VALID,0,VALID,93.6765,VALID,0,VALID,23.5061,VALID,102,VALID,0.747266,
2012-04-03, 03:27:04,VALID,1003.14,VALID,0,VALID,93.6231,VALID,0,VALID,23.4866,VALID,102,VALID,0.652344,
2012-04-03, 03:28:04,VALID,1003.14,VALID,0,VALID,93.6231,VALID,0,VALID,23.4848,VALID,102,VALID,0.559375,
2012-04-03, 03:29:04,VALID,1003.18,VALID,0,VALID,93.646,VALID,0,VALID,23.4866,VALID,102,VALID,0.579687,
2012-04-03, 03:30:04,VALID,1003.19,VALID,0,VALID,93.6307,VALID,0,VALID,23.4866,VALID,89,VALID,0.758203,
2012-04-03, 03:31:04,VALID,1003.2,VALID,0,VALID,93.6154,VALID,0,VALID,23.4653,VALID,73,VALID,0.824609,
2012-04-03, 03:32:04,VALID,1003.22,VALID,0,VALID,93.6002,VALID,0,VALID,23.4671,VALID,69,VALID,0.716797,
2012-04-03, 03:33:04,VALID,1003.24,VALID,0,VALID,93.5239,VALID,0,VALID,23.4475,VALID,69,VALID,0.690625,
2012-04-03, 03:34:04,VALID,1003.23,VALID,0,VALID,93.4094,VALID,0,VALID,23.4067,VALID,38,VALID,0.805469,
2012-04-03, 03:35:04,VALID,1003.27,VALID,0,VALID,93.3484,VALID,0,VALID,23.389,VALID,38,VALID,0.729297,
2012-04-03, 03:36:04,VALID,1003.27,VALID,0,VALID,93.3408,VALID,0,VALID,23.3305,VALID,38,VALID,0.818359,
2012-04-03, 03:37:04,VALID,1003.25,VALID,0,VALID,93.3179,VALID,0,VALID,23.311,VALID,38,VALID,0.735937,
2012-04-03, 03:38:04,VALID,1003.29,VALID,0,VALID,93.3484,VALID,0,VALID,23.2507,VALID,38,VALID,0.432031,
2012-04-03, 03:39:04,VALID,1003.31,VALID,0,VALID,93.3484,VALID,0,VALID,23.2329,VALID,38,VALID,0.264844,
2012-04-03, 03:40:04,VALID,1003.31,VALID,0,VALID,93.3255,VALID,0.104696,VALID,23.1921,VALID,38,VALID,0.221484,
2012-04-03, 03:41:04,VALID,1003.3,VALID,0,VALID,93.3408,VALID,0,VALID,23.1336,VALID,38,VALID,0.205469,
2012-04-03, 03:42:04,VALID,1003.33,VALID,0,VALID,93.3866,VALID,0,VALID,23.1141,VALID,38,VALID,0.38125,
2012-04-03, 03:43:04,VALID,1003.31,VALID,0,VALID,93.5391,VALID,0,VALID,23.1159,VALID,38,VALID,0.384766,
2012-04-03, 03:44:04,VALID,1003.33,VALID,0,VALID,93.6917,VALID,0,VALID,23.1354,VALID,38,VALID,0.377734,
2012-04-03, 03:45:04,VALID,1003.29,VALID,0,VALID,93.8443,VALID,0,VALID,23.1354,VALID,38,VALID,0.302344,
2012-04-03, 03:46:04,VALID,1003.35,VALID,0,VALID,93.8596,VALID,0,VALID,23.1354,VALID,38,VALID,0.310547,
2012-04-03, 03:47:04,VALID,1003.33,VALID,0,VALID,93.8596,VALID,0,VALID,23.1159,VALID,38,VALID,0.267969,